User: anonymous   Login
Location: Springville
(37.3745°N, 89.2676°W)
Time: 12:10:53
(UTC+00:00)
Language:

Helios 1A Rocket - Orbit

View from above orbital plane
View from above orbital plane
View from above satellite
View from above satellite

Ground track
Ground track

The orbit data is extracted from the following two-line orbital elements,

1 23608U 95033D   21022.90721676  .00000672  00000-0  63231-4 0  9998
2 23608  98.3110  54.3232 0015042 231.9782 128.0081 14.97544110384287
Epoch (UTC): 22 January 2021 21:46:23
Eccentricity: 0.0015042
inclination: 98.3110°
perigee height: 564 km
apogee height: 585 km
right ascension of ascending node: 54.3232°
argument of perigee: 231.9782°
revolutions per day: 14.97544110
mean anomaly at epoch: 128.0081°
orbit number at epoch: 38428

The dashed part of the orbit path shows where the satellite is in the earth's shadow,  

DLR